Regional Weather Roundup
Issued by NWS Kansas City/Pleasant Hill, MO

Home | Current Version | Previous Version | Text Only | Print | Product List | Glossary On
Versions: 1 2 3 4 5 6 7 8 9 10 11 12 13 14 15 16 17 18 19 20 21 22 23 24 25 26 27 28 29 30 31 32 33 34 35 36 37 38 39 40 41 42 43 44 45 46 47 48 49 50
000
ASUS43 KEAX 291211
RWREAX

WEATHER ROUNDUP FOR EASTERN KANSAS AND NORTHWEST MISSOURI
NATIONAL WEATHER SERVICE KANSAS CITY/PLEASANT HILL MO
700 AM CDT SUN MAR 29 2015

KSZ040-057-103>105-MOZ028-029-037-043-291300-
...KANSAS CITY METROPOLITAN AREA...

CITY           SKY/WX    TMP DP  RH WIND       PRES   REMARKS
K.C. INTL      CLOUDY    40  34  79 S18       29.92F WCI  31
6HR MIN TEMP:  38; 6HR MAX TEMP:  40;

K.C. DOWNTOWN  LGT RAIN  42  33  70 S13       29.96S
6HR MIN TEMP:  40; 6HR MAX TEMP:  42; 6HR PCP: TRACE;

LEES SUMMIT    MOCLDY    38  32  79 S10       29.96R WCI  31
6HR MIN TEMP:  36; 6HR MAX TEMP:  39;

OLATHE - IXD   MOCLDY    40  34  79 SE12      29.95R WCI  33
6HR MIN TEMP:  37; 6HR MAX TEMP:  40;

OLATHE - OJC   MOCLDY    39  34  82 SE9       29.95R WCI  33
6HR MIN TEMP:  36; 6HR MAX TEMP:  39;

LAWRENCE       CLOUDY    42  35  76 SE6       29.96R

$$

MOZ001>008-011>017-020>025-030>033-038>040-044>046-053-054-291300-
...NORTHERN AND CENTRAL MISSOURI...

CITY           SKY/WX    TMP DP  RH WIND       PRES   REMARKS
ST. JOSEPH     CLOUDY    42  35  76 S15       29.92F WCI  34
6HR MIN TEMP:  40; 6HR MAX TEMP:  42;

MOSBY          CLOUDY    39  34  81 SE15      29.96F WCI  31
WARRENSBURG    MOCLDY    37  32  81 S9G18     30.00R WCI  31
WHITEMAN AFB   MOCLDY    38  31  77 S17       29.99S WCI  28
6HR MIN TEMP:  36; 6HR MAX TEMP:  38;

CLINTON        MIX PCPN  39  34  81 SE15      30.00S WCI  31
SEDALIA        PTCLDY    39  30  70 S24       29.97F WCI  28
6HR MIN TEMP:  37; 6HR MAX TEMP:  39;

WARSAW         NOT AVBL
MARSHALL       MOCLDY    41  34  75 SE10      30.03R WCI  35
CHILLICOTHE      N/A     39  32  76 S6        30.02R WCI  35
6HR MIN TEMP:  38; 6HR MAX TEMP:  41;

KIRKSVILLE     CLOUDY    37  31  78 S15       30.00R WCI  28
6HR MIN TEMP:  32; 6HR MAX TEMP:  37; 6HR PCP: TRACE;


$$

MOZ041-047>049-056>058-063>065-088>090-097-291300-
...EASTERN AND SOUTHERN MISSOURI...

CITY           SKY/WX    TMP DP  RH WIND       PRES   REMARKS
ST. LOUIS INTL PTCLDY    36  20  52 S15G21    30.16F WCI  27
6HR MIN TEMP:  35; 6HR MAX TEMP:  38;

SPIRIT OF STL  PTCLDY    34  24  67 CALM      30.16R
COLUMBIA       PTCLDY    36  26  67 SE15      30.06R WCI  27
JEFFERSON CITY PTCLDY    38  25  59 SE9       30.10R WCI  31
MEXICO         PTCLDY    37  32  81 S13G20    30.08R WCI  29
HANNIBAL       PTCLDY    37  25  60 S15G23    30.05F WCI  28
ROLLA          CLEAR     35  22  58 S21G30    30.07F WCI  24
LEBANON        CLEAR     36  27  69 S21G26    30.05S WCI  24
OSAGE BEACH    PTCLDY    37  27  65 S10G22    30.06R WCI  30
SPRINGFIELD    CLEAR     36  28  73 SE25G32   30.01S WCI  24
BRANSON        CLEAR     36  28  75 SE14      30.08S WCI  27
NEVADA         CLEAR     37  34  87 SE13      29.99S WCI  29
JOPLIN         CLEAR     43  34  70 SE7       29.97F
WEST PLAINS    CLEAR     32  26  78 S7        30.16S WCI  26

$$

IAZ060-094-KSZ022-034>040-054-083-096-NEZ052-066-093-291300-
...KANSAS...SOUTHEAST NEBRASKA AND IOWA...

CITY           SKY/WX    TMP DP  RH WIND       PRES   REMARKS
TOPEKA         CLOUDY    44  37  76 S5        29.96R
6HR MIN TEMP:  40; 6HR MAX TEMP:  44;

MANHATTAN      CLOUDY    47  42  83 S3        29.91S
EMPORIA        PTCLDY    43  39  86 S15       29.88R
CHANUTE        CLEAR     42  38  85 S10       29.94R
WICHITA        MOCLDY    47  41  80 S17       29.88R
OMAHA          MOCLDY    42  34  73 S10       29.87S
LINCOLN        CLOUDY    42  37  82 S7        29.90R
FALLS CITY     CLOUDY    42  35  76 S6        29.94R
LAMONI         LGT RAIN  38  34  85 S12       29.92R WCI  30
DES MOINES     CLOUDY    39  34  82 S20       29.86F WCI  29

$$




USA.gov is the U.S. government's official web portal to all federal, state and local government web resources and services.